This is the latest recevied weather packets stored in our database for station/object K7TUS-6. If no packets are shown the sender has not sent any weather packets the latest 10 day(s).
| Time | Temp. | Humidity | Pressure | Rain* | Wind** | Luminosity | Snow |
|---|---|---|---|---|---|---|---|
| 1777746304 | 16.67° C | 8% | 987.5 hPa | - | - | - | - |
| 1777746009 | 16.11° C | 8% | 987.3 hPa | - | - | - | - |
| 1777745708 | 15.56° C | 7% | 987.1 hPa | - | - | - | - |
| 1777745408 | 15.56° C | 6% | 987.5 hPa | - | - | - | - |
| 1777744807 | 17.22° C | 4% | 987.5 hPa | - | - | - | - |
| 1777744506 | 18.33° C | 3% | 988.1 hPa | - | - | - | - |
| 1777744206 | 18.33° C | 2% | 986.2 hPa | - | - | - | - |
| 1777743905 | 18.89° C | 1% | 987 hPa | - | - | - | - |
| 1777743605 | 18.33° C | 1% | 987.9 hPa | - | - | - | - |
| 1777743304 | 18.33° C | 1% | 987.2 hPa | - | - | - | - |
| 1777743003 | 17.78° C | 1% | 986.3 hPa | - | - | - | - |
| 1777742703 | 17.22° C | 2% | 986.9 hPa | - | - | - | - |
| 1777742402 | 16.67° C | 3% | 986.8 hPa | - | - | - | - |
| 1777742108 | 16.67° C | 4% | 987 hPa | - | - | - | - |
| 1777741807 | 17.22° C | 4% | 986.9 hPa | - | - | - | - |
| 1777741507 | 16.67° C | 4% | 987.1 hPa | - | - | - | - |
| 1777741206 | 16.67° C | 2% | 987.5 hPa | - | - | - | - |
| 1777740606 | 16.11° C | 2% | 988 hPa | - | - | - | - |
| 1777740305 | 17.22° C | 3% | 986.7 hPa | - | - | - | - |
| 1777740004 | 16.67° C | 5% | 986.1 hPa | - | - | - | - |
| 1777739704 | 17.22° C | 3% | 986.9 hPa | - | - | - | - |
| 1777739403 | 17.22° C | 4% | 986.7 hPa | - | - | - | - |
| 1777739102 | 16.67° C | 4% | 985.7 hPa | - | - | - | - |
| 1777738508 | 16.67° C | 5% | 985.9 hPa | - | - | - | - |
| 1777738207 | 16.11° C | 4% | 986.2 hPa | - | - | - | - |
* Rain since midnight (hover to see other rain measurements)
** Current wind speed in m/s (hover to see current wind gust speed)